Location: M�ria
(16.5878°S, 37.3500°E)
Time: 06:00:13
(UTC+00:00)

Daily predictions for brighter satellites

Satellite Brightness Start Highest point End
(mag) Time Altitude Azimuth Time Altitude Azimuth Time Altitude Azimuth
ATLAS 5 CENTAUR R/B 3.1 15:13:31 10° NNW 15:20:41 73° WSW 15:27:48 10° SSE
NOSS 2-3 (C) 3.8 15:18:24 10° SSW 15:23:49 87° ESE 15:28:12 10° NNE
Cosmos 2237 Rocket 2.5 15:19:23 10° NNW 15:25:02 75° WSW 15:30:42 10° SSE
Palapa 6 Rocket 3.6 15:21:51 10° WSW 15:25:44 40° S 15:30:16 10° ESE
Cosmos 1238 Rocket 3.4 15:21:44 10° N 15:27:12 65° E 15:31:45 10° SSE
STARLINK-1027 3.6 15:23:52 10° NW 15:28:00 86° NE 15:32:11 10° SE
Cosmos 405 3.3 15:27:11 10° S 15:30:34 43° E 15:33:52 10° NNE
Envisat 3.0 15:27:16 10° SSE 15:32:20 64° E 15:37:21 10° N
SL-24 R/B - RUBIN 2 4.3 15:26:59 10° NNW 15:32:43 76° WSW 15:37:45 10° SSE
STARLINK-1060 3.7 15:28:53 10° NW 15:33:01 82° SW 15:37:11 10° SE
STARLINK-1030 3.9 15:33:51 10° NW 15:37:58 71° SW 15:42:07 10° SSE
CZ-4B R/B 4.0 15:34:17 10° S 15:39:41 56° WSW 15:45:08 10° NNW
SL-16 R/B 2.6 15:34:55 10° N 15:40:14 42° ENE 15:45:35 10° SE
Okean-O 3.9 15:38:51 10° SE 15:42:18 22° E 15:45:43 10° NNE
ASC 2 Rocket 4.4 15:38:39 10° W 15:42:35 39° NNW 15:47:25 10° NE
STARLINK-1020 4.1 15:38:51 10° NW 15:42:57 61° SW 15:47:04 10° SSE
CORIOLIS 4.1 15:40:44 10° SSE 15:46:12 78° ENE 15:51:35 10° N
STARLINK-1052 4.3 15:43:52 10° NW 15:47:54 52° SW 15:51:59 10° SSE
NOAA 12 4.1 15:50:28 10° SSE 15:55:46 88° WSW 16:00:59 10° NNW
YAOGAN 6 3.3 15:57:27 10° S 16:01:04 55° WSW 16:04:36 10° NNW
Cosmos 2100 Rocket 4.1 15:55:42 10° N 16:01:57 85° W 16:08:12 10° S
Cosmos 1371 Rocket 4.4 15:59:41 10° S 16:04:42 40° ESE 16:09:39 10° NE
Cosmos 2278 Rocket 2.9 15:59:58 10° S 16:04:53 29° ESE 16:09:44 10° NE
Cosmos 1470 Rocket 4.0 16:02:37 10° NNW 16:07:03 67° W 16:11:33 10° S
IRS-1C Rocket 4.1 16:03:57 10° SSE 16:09:15 86° WSW 16:14:30 10° NNW
ARGOS Delta rocket 4.3 16:07:52 11° SSE 16:12:38 45° E 16:17:23 10° N
CZ-2C R/B 4.3 16:08:50 10° ENE 16:10:22 16° ENE 16:10:22 16° ENE
FengYun 1-2 T 4.2 16:08:14 10° SSE 16:13:48 83° ENE 16:19:23 10° N
Helios 1A Rocket 4.1 16:10:31 10° S 16:14:20 41° WSW 16:18:09 10° NNW
STARLINK-1039 4.4 16:10:50 10° N 16:14:33 33° ENE 16:15:22 30° E
Lacrosse 5 rocket 3.9 16:11:58 10° W 16:14:37 16° SW 16:17:21 10° SSW
Cosmos 2061 Rocket 3.9 16:10:35 10° N 16:16:52 77° E 16:23:09 10° S
OE (NEXTSAT) 4.2 16:15:41 10° SW 16:19:12 75° SE 16:20:26 37° ENE
STARLINK-1045 4.2 16:15:41 10° NNW 16:19:32 38° ENE 16:20:10 35° E
Meteor 1-25 Rocket 4.4 16:14:13 10° N 16:19:45 74° W 16:25:20 10° S
YAOGAN 1 3.2 16:19:45 33° E 16:19:58 33° E 16:23:51 10° NNE
Cosmos 1939 Rocket 3.1 16:20:33 40° ESE 16:21:21 46° E 16:25:10 10° N
STARLINK-1050 4.0 16:20:33 10° NNW 16:24:29 44° NE 16:24:58 42° ENE
CZ-4 R/B 1.5 16:24:37 42° SE 16:25:39 55° E 16:29:42 10° N
STARLINK-1055 3.8 16:25:26 10° NNW 16:29:26 51° NE 16:29:45 50° ENE
Meteor 1-14 Rocket 4.1 16:24:02 10° N 16:29:36 75° E 16:34:38 14° S
Cosmos 2016 Rocket 4.0 16:23:52 10° N 16:30:02 81° W 16:36:21 10° S
Cosmos 1864 Rocket 4.3 16:24:45 10° N 16:30:51 82° E 16:37:03 10° S
BREEZE-M DEB (TANK) 4.5 16:19:17 10° NW 16:31:34 40° WSW 16:34:27 18° S
GPS 2-17 Rocket1 2.9 16:28:15 10° WNW 16:32:56 86° SSW 16:33:50 57° ESE
Cosmos 2056 Rocket 3.3 16:27:55 10° S 16:33:10 69° ESE 16:38:17 10° NNE
Cosmos 1862 Rocket 3.7 16:29:49 10° S 16:34:20 79° W 16:38:47 10° N
STARLINK-1022 3.6 16:30:20 10° NNW 16:34:25 60° NE 16:34:32 60° ENE
STARLINK-1042 3.5 16:35:15 10° NNW 16:39:17 70° NE 16:39:17 70° NE
CSL-04 Rocket 3.9 16:42:38 46° ENE 16:42:38 46° ENE 16:47:36 10° N
STARLINK-1056 3.6 16:40:12 10° NNW 16:44:05 76° N 16:44:05 76° N
STARLINK-1054 3.7 16:45:10 10° NW 16:48:53 71° NW 16:48:53 71° NW
Cosmos 1869 Rocket 3.5 16:45:55 10° N 16:49:45 70° N 16:49:45 70° N
STARLINK-1062 4.0 16:50:08 10° NW 16:53:40 61° WNW 16:53:40 61° WNW
STARLINK-1053 4.3 16:55:07 10° NW 16:58:26 52° WNW 16:58:26 52° WNW
Palapa 6 Rocket 4.2 17:09:44 10° WSW 17:12:47 43° WSW 17:12:47 43° WSW
USA 267 4.5 17:33:32 29° N 17:33:32 29° N 17:36:52 10° NNW
Atlas Centaur 2 3.8 17:24:02 10° NNW 17:30:48 39° NNE 17:30:48 39° NNE
Aurora 2 Rocket 4.2 17:36:59 10° WNW 17:45:26 69° WNW 17:45:26 69° WNW
Cosmos 2278 Rocket 4.4 17:44:27 10° SW 17:48:38 21° WNW 17:52:49 10° NNW
CZ-2C R/B 4.5 17:48:09 10° NNW 17:51:52 28° WNW 17:51:52 28° WNW
